Погода в Черноморском

Россия / Республика Крым     45°30′33″N   32°42′12″E
темп.,
°C
ветер,
м/с
пор.,
м/с
влажн.,
%
обл.,
%
осадки,
мм/ч
давл.,
гПа
погр.,
м
6 мая, чт
чт600:00+11юв01745 0.0 101311
03:00+11всв336924 0.0 101239
06:00+10вюв3369100 0.0 101160
09:00+14ю345999 0.0 1011183
12:00+15юз4549100 0.0 1012397
15:00+15ююз45565 0.0 1012364
18:00+14з4469100 0.0 1013301
21:00+12зсз227754 0.0 101415
7 мая, пт
пт700:00+12сз228050 0.0 101520
03:00+12сз12850 0.0 101512
06:00+11с11895 0.0 101613
09:00+14ююв1179100 0.0 1016204
12:00+16зюз2269100 0.0 1016395
15:00+17ююз456158 0.0 1015369
18:00+15ю686645 0.0 1014194
21:00+13ю61079100 0.0 1014178
8 мая, сб
сб800:00+13ю91488100 0.0 1013238
03:00+13ю81492100 0.0 1012251
06:00+13ю71291100 0.0 1011205
09:00+16ю711739 0.0 1011253
12:00+16зюз687290 0.0 1012379
15:00+14ссз788717 0.0 1012449
18:00+12с121482100 0.0 1014784
21:00+10с111384100 1.1 1016755
9 мая, вс
вс900:00+10ссв101382100 3.1 1016976
03:00+10с9126786 3.5 10181282
06:00+9с1012700 0.0 1020810
09:00+10с911660 0.0 1023925
12:00+12ссз79505 0.0 10251441
15:00+12зсз88555 0.0 1026906
18:00+12зсз89625 0.0 1026468
21:00+11зсз68705 0.0 1027191
10 мая, пн
пн1000:00+11зсз467139 0.0 1028158
03:00+11сз56770 0.0 1028213
06:00+11ссв45755 0.0 1028276
09:00+13св34600 0.0 1028560
12:00+13с54551 0.0 1027732
15:00+14ссз34460 0.0 1026708
18:00+14зсз45553 0.0 1024382
21:00+12зсз57710 0.0 1023176